User: anonymous   Login
Location: Little Ridge
(33.0629°N, 96.4547°W)
Time: 05:40:38
(UTC+00:00)
Language:

Meteor 1-31 Rocket - Orbit

View from above orbital plane
View from above orbital plane
View from above satellite
View from above satellite

Ground track
Ground track

The orbit data is extracted from the following two-line orbital elements,

1 12586U 81065B   22148.80538283  .00002716  00000-0  16109-3 0  9992
2 12586  97.6828 143.0509 0019785 120.4993 239.8193 15.12079317229255
Epoch (UTC): 28 May 2022 19:19:45
Eccentricity: 0.0019785
inclination: 97.6828°
perigee height: 516 km
apogee height: 543 km
right ascension of ascending node: 143.0509°
argument of perigee: 120.4993°
revolutions per day: 15.12079317
mean anomaly at epoch: 239.8193°
orbit number at epoch: 22925

The dashed part of the orbit path shows where the satellite is in the earth's shadow,  

DLR